Location: Nitra
(0.0000°N, 18.0833°E)
Time: 13:47:32
(UTC+01:00)

Cosmos 1707 - Pass Details

Date: 25 September 2022
Orbit: 508 x 520 km, 82.5° (Epoch: 27 November)

Event Time Altitude Azimuth Distance (km) Brightness Sun altitude
Rises 19:34:43 0° 8° (N) 2,600 6.2 -13.9°
Reaches altitude 10° 19:36:55 10° 16° (NNE) 1,720 5.2 -14.4°
Maximum altitude 19:40:28 40° 86° (E) 758 3.0 -15.3°
Drops below altitude 10° 19:44:04 10° 157° (SSE) 1,736 5.1 -16.2°
Sets 19:46:17 0° 164° (SSE) 2,627 6.1 -16.7°
